sat.trackr.live / text

‹ back to catalog

STARLINK-36457

NORAD 67349 · 2026-003R

PAYLOAD ACTIVE UNKNOWN

§ Identity

Operator
Country
US
Launch date
2026-01-09
Launch site
AFETR
Launch vehicle
Mass (kg)
RCS (m²)

Purposes: comms

External: N2YO · Heavens-Above · Gunter

§ Orbital elements

Epoch: 2026-09-19T03:55:36.040512Z

Period
94.27 min
Inclination
42.9980°
Eccentricity
0.0000500
Mean motion
15.27584423 rev/d
Perigee alt
482.7 km
Apogee alt
483.4 km
Semi-major
6,861.2 km
B*
3.4031e-4
RAAN
214.3895°
Arg perigee
255.8144°
Mean anomaly
104.2652°
Rev number
3,841

§ Raw data

STARLINK-364571 67349U 26003R   26262.16361158  .00009116  00000+0  34031-3 0  99992 67349  42.9980 214.3895 0000500 255.8144 104.2652 15.27584423 38416

JSON: /api/v1/satellites/67349 · /tle

For live sub-satellite position, see the globe view (requires WebGL).

§ Visibility from observer

Set your observer location to see the next 7 days of passes ≥ 10°. The values pass through the URL so the page stays shareable.

No JS? Fill the form by hand. The geolocation button needs JavaScript.